Flag for Bosnia-Herzegovina Weather past 2 weeks in Sarajevo, Bosnia-Herzegovina

Now
82 °F

Sunny.


Feels Like: 83 °F
Forecast: 60 / 91 °F
Wind: 3 mph from West

Location: Sarajevo / Butmir

Current Time: Aug 30, 2015 at 12:42:50 PM

Latest Report: Aug 30, 2015 at 12:00 PM


Visibility: 10 mi

Pressure: 30.27 "Hg (28.52 "Hg at 526m altitude)

Humidity: 48%

Dew point: 61 °F

Location of SarajevoLocation

Historic Weather in Sarajevo — Graph

°F

Sarajevo temperature yesterday

Maximum temperature yesterday: 93 °F (at 4:00 PM)
Minimum temperature yesterday: 59 °F (at 6:00 AM)
Average temperature yesterday: 77 °F

Past Weeks' High & Low Weather Summary

 TemperatureHumidityPressure
High93 °F (Aug 29, 4:00 PM)100% (Aug 16, 1:00 AM)30.30 "Hg (Aug 16, 1:00 AM)
Low52 °F (Aug 24, 6:30 AM)28% (Aug 29, 4:00 PM)29.77 "Hg (Aug 16, 11:00 PM)
Average69 °F75%30.06 "Hg
* Reported Aug 15 11:00 AM — Aug 30 11:30 AM, Sarajevo, Weather by CustomWeather, © 2015

Note: Actual official high and low records may vary slightly from our data, if they occured in-between our weather recording intervals... More about our weather records

Advertising

Sarajevo weather history for previous 24 hours

 ConditionsComfort  
Time TempWeatherWind HumidityBarometerVisibility
11:30 AM
Sun, Aug 30
81 °FSunny.2 mph48%30.27 "Hg10 mi
11:00 AM77 °FSunny.2 mph51%30.27 "Hg10 mi
10:30 AM75 °FSunny.1 mph57%30.30 "Hg10 mi
10:00 AM73 °FSunny.1 mph61%30.30 "Hg10 mi
9:30 AM70 °FSunny.1 mph69%30.30 "Hg10 mi
9:00 AM66 °FSunny.1 mph78%30.30 "Hg10 mi
8:30 AM63 °FSunny.1 mph88%30.30 "Hg10 mi
8:00 AM61 °FSunny.No wind88%30.30 "Hg10 mi
7:30 AM59 °FSunny.No wind94%30.30 "Hg10 mi
7:00 AM59 °FClear.1 mph88%30.30 "Hg10 mi
6:30 AM57 °FClear.No wind94%30.30 "Hg10 mi
6:00 AM57 °FClear.1 mph94%30.30 "Hg10 mi
5:30 AM59 °FClear.No wind94%30.30 "Hg10 mi
5:00 AM59 °FClear.1 mph94%30.27 "Hg10 mi
4:00 AM61 °FClear.1 mph88%30.27 "Hg10 mi
3:00 AM61 °FClear.1 mph94%30.27 "Hg10 mi
2:00 AM63 °FClear.1 mph88%30.27 "Hg10 mi
1:00 AM66 °FClear.1 mph83%30.27 "Hg10 mi
12:00 AM68 °FClear.1 mph78%30.27 "Hg10 mi
11:00 PM
Sat, Aug 29
70 °FClear.1 mph73%30.27 "Hg10 mi
10:30 PM72 °FClear.1 mph69%30.27 "Hg10 mi
10:00 PM75 °FClear.1 mph65%30.27 "Hg10 mi
9:30 PM75 °FClear.1 mph65%30.24 "Hg10 mi
9:00 PM77 °FClear.2 mph57%30.24 "Hg10 mi
8:30 PM82 °FClear.3 mph45%30.24 "Hg10 mi
8:00 PM79 °FPassing clouds.2 mph58%30.21 "HgN/A
7:30 PM84 °FPassing clouds.1 mph45%30.21 "HgN/A
7:00 PM86 °FScattered clouds.2 mph43%30.21 "HgN/A
6:30 PM88 °FScattered clouds.5 mph40%30.21 "HgN/A
6:00 PM90 °FScattered clouds.6 mph38%30.21 "HgN/A
5:30 PM91 °FScattered clouds.7 mph32%30.21 "HgN/A
5:00 PM91 °FScattered clouds.7 mph30%30.21 "HgN/A
4:30 PM93 °FScattered clouds.6 mph30%30.18 "HgN/A
4:00 PM93 °FScattered clouds.6 mph28%30.21 "HgN/A
3:30 PM91 °FScattered clouds.6 mph30%30.21 "HgN/A
3:00 PM91 °FPassing clouds.6 mph30%30.21 "HgN/A
2:30 PM91 °FPassing clouds.5 mph30%30.21 "HgN/A
2:00 PM91 °FPassing clouds.3 mph30%30.21 "HgN/A
1:30 PM90 °FPassing clouds.3 mph36%30.24 "HgN/A
1:00 PM86 °FPassing clouds.2 mph46%30.24 "HgN/A
12:00 PM82 °FPassing clouds.2 mph55%30.27 "HgN/A
Weather by CustomWeather, © 2015

See weather overviewHow to use our weather pages